Weather History for Dallas Redbird, TX

Change the Weather History Date:

Friday, February 7, 2014

  Actual Average Record
Temperature  
Mean Temperature 28 °F -  
Max Temperature 33 °F 55 °F 80 °F (2013)
Min Temperature 24 °F 38 °F 24 °F (2014)
Degree Days  
Heating Degree Days 36    
Moisture  
Dew Point 22 °F    
Average Humidity 74    
Maximum Humidity 88    
Minimum Humidity 60    
Precipitation  
Precipitation 0.00 in - - ()
Sea Level Pressure  
Sea Level Pressure 30.29 in    
Wind  
Wind Speed 4 mph (East)    
Max Wind Speed 7 mph    
Max Gust Speed -    
Visibility 8 miles    
Events      
Averages and records for this station are not official NWS values.
T = Trace of Precipitation, MM = Missing Value Source: NWS Daily Summary

Daily Weather History Graph

Daily Weather History Graph

Search for Another Location

Airport:

Trip Planner

Search our weather history database for the weather conditions in past years. The results will help you decide how hot, cold, wet, or windy it might be!

Date:

Astronomy

Feb. 07, 2014 Rise Set
Actual Time 7:17 AM CST 6:05 PM CST
Civil Twilight 6:52 AM CST 6:31 PM CST
Nautical Twilight 6:22 AM CST 7:00 PM CST
Astronomical Twilight 5:54 AM CST 7:29 PM CST
Moon 12:21 PM CST (2/7) 1:32 AM CST (2/7)
Length of Visible Light 11h 39m
Length of Day
10h 48m
First Quarter, 59% of the Moon is Illuminated
Feb 7
First Quarter
Feb 14
Full
Feb 22
Last Quarter
Mar 1
New
Mar 8
First Quarter

Hourly Weather History & Observations

Time (CST) Temp. Windchill Dew Point Humidity Pressure Visibility Wind Dir Wind Speed Gust Speed Precip Events Conditions
12:53 AM 24.1 °F 19.7 °F 16.0 °F 71% 30.40 in 10.0 mi NNE 3.5 mph - N/A   Overcast
1:23 AM 24.8 °F 17.9 °F 15.8 °F 69% 30.37 in 10.0 mi NNE 5.8 mph - N/A   Overcast
1:53 AM 25.0 °F 19.3 °F 16.0 °F 69% 30.39 in 10.0 mi North 4.6 mph - N/A   Overcast
2:53 AM 25.0 °F 19.3 °F 16.0 °F 69% 30.37 in 10.0 mi North 4.6 mph - N/A   Overcast
3:53 AM 25.0 °F 19.3 °F 16.0 °F 69% 30.37 in 10.0 mi North 4.6 mph - N/A   Overcast
4:53 AM 25.0 °F 19.3 °F 16.0 °F 69% 30.38 in 10.0 mi North 4.6 mph - N/A   Overcast
5:53 AM 25.0 °F 18.1 °F 16.0 °F 69% 30.35 in 10.0 mi NE 5.8 mph - N/A   Overcast
6:53 AM 25.0 °F - 17.1 °F 72% 30.36 in 10.0 mi Calm Calm - N/A   Mostly Cloudy
7:53 AM 25.0 °F 19.3 °F 17.1 °F 72% 30.37 in 10.0 mi NNE 4.6 mph - N/A   Overcast
8:53 AM 26.1 °F 21.9 °F 18.0 °F 71% 30.37 in 10.0 mi NNE 3.5 mph - N/A   Overcast
9:53 AM 27.0 °F 23.0 °F 19.0 °F 72% 30.39 in 10.0 mi North 3.5 mph - N/A   Overcast
10:53 AM 28.9 °F - 19.9 °F 69% 30.37 in 10.0 mi Calm Calm - N/A   Overcast
11:53 AM 30.0 °F - 21.0 °F 69% 30.35 in 10.0 mi Calm Calm - N/A   Overcast
12:53 PM 32.0 °F 27.5 °F 21.9 °F 66% 30.30 in 10.0 mi ESE 4.6 mph - N/A   Overcast
1:53 PM 32.0 °F 27.5 °F 21.9 °F 66% 30.28 in 10.0 mi SE 4.6 mph - N/A   Overcast
2:53 PM 32.0 °F - 23.0 °F 69% 30.26 in 7.0 mi Calm Calm - N/A   Overcast
3:53 PM 32.0 °F 28.7 °F 21.9 °F 66% 30.25 in 10.0 mi SE 3.5 mph - N/A   Overcast
4:14 PM 33.8 °F 29.6 °F 21.2 °F 60% 30.24 in 8.0 mi East 4.6 mph - N/A   Overcast
4:49 PM 33.8 °F 28.6 °F 23.0 °F 65% 30.23 in 8.0 mi ESE 5.8 mph - N/A   Overcast
4:53 PM 32.0 °F 25.6 °F 23.0 °F 69% 30.24 in 8.0 mi ESE 6.9 mph - N/A   Overcast
5:53 PM 32.0 °F 25.6 °F 25.0 °F 75% 30.24 in 8.0 mi SE 6.9 mph - N/A   Overcast
6:53 PM 30.9 °F 25.2 °F 25.0 °F 79% 30.25 in 9.0 mi SSE 5.8 mph - N/A   Overcast
7:28 PM 30.2 °F 25.4 °F 26.6 °F 86% 30.23 in 8.0 mi SSE 4.6 mph - N/A   Overcast
7:53 PM 30.9 °F 27.5 °F 26.1 °F 82% 30.25 in 8.0 mi SSE 3.5 mph - N/A   Overcast
8:01 PM 30.2 °F 26.7 °F 26.6 °F 86% 30.23 in 7.0 mi Variable 3.5 mph - N/A   Overcast
8:26 PM 32.0 °F 27.5 °F 26.6 °F 80% 30.24 in 7.0 mi SSE 4.6 mph - N/A   Overcast
8:40 PM 30.2 °F 25.4 °F 26.6 °F 86% 30.23 in 7.0 mi SSE 4.6 mph - N/A   Overcast
8:53 PM 32.0 °F 27.5 °F 27.0 °F 82% 30.25 in 7.0 mi SSE 4.6 mph - N/A   Overcast
9:53 PM 32.0 °F 26.4 °F 27.0 °F 82% 30.24 in 7.0 mi SSE 5.8 mph - N/A   Overcast
10:11 PM 32.0 °F - 26.6 °F 80% 30.24 in 7.0 mi Calm Calm - N/A   Overcast
10:19 PM 32.0 °F - 26.6 °F 80% 30.24 in 7.0 mi Calm Calm - N/A   Overcast
10:50 PM 32.0 °F - 26.6 °F 80% 30.23 in 6.0 mi Calm Calm - N/A   Haze
10:53 PM 32.0 °F 28.7 °F 27.0 °F 82% 30.25 in 6.0 mi South 3.5 mph - N/A   Haze
11:53 PM 32.0 °F 28.7 °F 28.9 °F 88% 30.23 in 3.0 mi SE 3.5 mph - N/A   Overcast